STARLINK-34654

Last updated on Tue Aug 19 2025 00:02:06 GMT+0000 (Coordinated Universal Time)

1 64858U 25152S 25230.56293121 .00032749 00000+0 60072-3 0 9999 2 64858 97.6041 84.2098 0001649 92.7805 267.3634 15.49219294 4788
UTC large
Height (km)
Speed (km/s)
/
Latitude / Longitude
Inclination (degrees)
Orbital Period (minutes)
Azimuth
Elevation
Range (km)
Doppler Factor

Next 0 passes for location: London (51.5072 / 0.1276)

Sorry there are no passes over London.